INTELSAT 25 (IS-25) (33153 NORAD) Tracking and Keplerian Element Data

This shows tracking and keplerian element data for the satellite.

Feedback or suggestion? Click here.




ElementValue
Catalog33153
NameINTELSAT 25 (IS-25)
Epoch Orbit6069
Epoch Day34.6772316
Epoch Year2025
RAAN86.598
Inclination1.4184
Eccentricity0.0003239
Argument of Perigee237.9997
Mean Anonmoly21.7805
Mean Motion1.0027043
Decay Rate-2.2E-06
L11 33153U 08034A 25034.67723160 -.00000220 00000+0 00000+0 0 9999
L22 33153 1.4184 86.5980 0003239 237.9997 21.7805 1.00270430 60695



Live tracking and technical data element details for INTELSAT 25 (IS-25) (NORAD 33153). INTELSAT 25 (IS-25) can be tracked NOW for your location showing map with azimuth and elevation plus other details from your city location.







IsCatalogInMostPopularTable: catalog: 33153, numindb: 592
Update: records affected: 1



GetName: 33153 INTELSAT 25 (IS-25)

Hit Count: updated at: Thu, 22 May 2025 04:33:27 GMT